Marysville, CA

4:25 PM PDT on August 19, 2019 (GMT -0700)
Yuba County

Weather History for KMYV - June, 2019

Change the Weather History Date:

Saturday, June 1, 2019

  Actual Average Record
Temperature  
Mean Temperature 76 °F -  
Max Temperature 93 °F 85 °F 101 °F (1969)
Min Temperature 61 °F 57 °F 46 °F (2011)
Cooling Degree Days 11    
Growing Degree Days 26 (Base 50)    
Moisture  
Dew Point 58 °F    
Average Humidity 55    
Maximum Humidity 90    
Minimum Humidity 30    
Precipitation  
Precipitation 0.00 in - - ()
Sea Level Pressure  
Sea Level Pressure 29.76 in    
Wind  
Wind Speed 5 mph (SE)    
Max Wind Speed 14 mph    
Max Gust Speed 22 mph    
Visibility 10 miles    
Events Thunderstorm    
Averages and records for this station are not official NWS values.
T = Trace of Precipitation, MM = Missing Value Source: NWS Daily Summary

Daily Weather History Graph

Daily Weather History Graph

Search for Another Location

Airport or City:

Astronomy

Jun. 01, 2019 Rise Set
Actual Time 5:42 AM PDT 8:26 PM PDT
Civil Twilight 5:10 AM PDT 8:57 PM PDT
Nautical Twilight 4:31 AM PDT 9:37 PM PDT
Astronomical Twilight 3:46 AM PDT 10:22 PM PDT
Moon 4:48 AM PDT (6/1) 6:46 PM PDT (6/1)
Length of Visible Light 15h 47m
Length of Day
14h 44m
Waning Crescent, 3% of the Moon is Illuminated
Jun 1
Waning Crescent
Jun 3
New
Jun 9
First Quarter
Jun 17
Full
Jun 25
Last Quarter

Hourly Weather History & Observations

Time (PDT) Temp. Heat Index Dew Point Humidity Pressure Visibility Wind Dir Wind Speed Gust Speed Precip Events Conditions
12:53 AM 66.0 °F - 57.9 °F 75% 29.82 in 10.0 mi WSW 3.5 mph - N/A   Clear
1:53 AM 63.0 °F - 57.9 °F 84% 29.81 in 10.0 mi NW 3.5 mph - N/A   Clear
2:53 AM 64.9 °F - 57.0 °F 75% 29.80 in 10.0 mi Calm Calm - N/A   Clear
3:53 AM 61.0 °F - 57.9 °F 90% 29.78 in 10.0 mi Calm Calm - N/A   Clear
4:53 AM 62.1 °F - 57.9 °F 86% 29.78 in 10.0 mi North 4.6 mph - N/A   Clear
5:53 AM 62.1 °F - 57.9 °F 86% 29.78 in 10.0 mi Calm Calm - 0.00 in   Clear
6:53 AM 68.0 °F - 61.0 °F 78% 29.78 in 10.0 mi NNW 9.2 mph - N/A   Clear
7:53 AM 73.9 °F - 60.1 °F 62% 29.78 in 10.0 mi NNW 9.2 mph - N/A   Clear
8:53 AM 78.1 °F - 59.0 °F 52% 29.77 in 10.0 mi North 10.4 mph - N/A   Clear
9:53 AM 82.9 °F 82.4 °F 57.0 °F 41% 29.77 in 10.0 mi NNE 8.1 mph - N/A   Clear
10:53 AM 86.0 °F 84.9 °F 57.0 °F 37% 29.77 in 10.0 mi Variable 3.5 mph - N/A   Clear
11:53 AM 88.0 °F 86.1 °F 55.0 °F 32% 29.77 in 10.0 mi NE 6.9 mph - N/A   Clear
12:53 PM 90.0 °F 87.9 °F 55.0 °F 30% 29.76 in 10.0 mi Variable 3.5 mph - N/A   Clear
1:53 PM 90.0 °F 88.6 °F 57.0 °F 33% 29.74 in 10.0 mi North - - N/A   Clear
2:53 PM 90.0 °F 87.9 °F 55.0 °F 30% 29.73 in 10.0 mi Variable 4.6 mph - N/A   Clear
3:53 PM 90.0 °F 88.1 °F 55.9 °F 31% 29.71 in 10.0 mi West 5.8 mph - N/A   Clear
4:53 PM 91.0 °F 90.0 °F 57.9 °F 33% 29.69 in 10.0 mi SW 5.8 mph - N/A   Clear
5:53 PM 89.1 °F 87.3 °F 55.9 °F 32% 29.69 in 10.0 mi SSE 10.4 mph - N/A   Clear
6:53 PM 87.1 °F 85.7 °F 55.9 °F 35% 29.68 in 10.0 mi SSE 9.2 mph - N/A   Clear
7:53 PM 84.0 °F 83.5 °F 57.9 °F 41% 29.70 in 10.0 mi SSE 6.9 mph - N/A   Partly Cloudy
8:53 PM 81.0 °F 81.7 °F 61.0 °F 50% 29.73 in 10.0 mi SE 10.4 mph - N/A   Scattered Clouds
9:40 PM 73.0 °F - 59.0 °F 61% 29.74 in 10.0 mi ESE 13.8 mph - N/A Thunderstorm Clear
9:53 PM 73.9 °F - 57.9 °F 57% 29.76 in 10.0 mi ESE 12.7 mph 21.9 mph N/A Thunderstorm Thunderstorm
10:07 PM 73.9 °F - 57.0 °F 55% 29.75 in 10.0 mi ESE 10.4 mph - N/A   Partly Cloudy
10:33 PM 73.0 °F - 57.0 °F 57% 29.76 in 10.0 mi South 6.9 mph - N/A Thunderstorm Thunderstorm
10:48 PM 71.6 °F - 59.0 °F 64% 29.77 in 10.0 mi South 4.6 mph - N/A Thunderstorm Mostly Cloudy
10:53 PM 72.0 °F - 59.0 °F 64% 29.78 in 10.0 mi SW 3.5 mph - N/A Thunderstorm Mostly Cloudy
11:13 PM 71.1 °F - 59.0 °F 66% 29.76 in 10.0 mi SE 4.6 mph - N/A   Partly Cloudy
11:53 PM 70.0 °F - 57.9 °F 65% 29.78 in 10.0 mi SE 6.9 mph - N/A   Clear